sat.trackr.live / text

‹ back to catalog

STARLINK-3966

NORAD 52552 · 2022-051V

PAYLOAD ACTIVE UNKNOWN

§ Identity

Operator
Country
US
Launch date
2022-05-13
Launch site
AFWTR
Launch vehicle
Mass (kg)
RCS (m²)

Purposes: comms

External: N2YO · Heavens-Above · Gunter

§ Orbital elements

Epoch: 2026-05-24T17:07:03.121248Z

Period
95.44 min
Inclination
53.2136°
Eccentricity
0.0001171
Mean motion
15.08834390 rev/d
Perigee alt
539.0 km
Apogee alt
540.6 km
Semi-major
6,917.9 km
B*
3.6606e-5
RAAN
147.9912°
Arg perigee
73.7030°
Mean anomaly
286.4091°
Rev number
22,292

§ Raw data

STARLINK-39661 52552U 22051V   26144.71323057  .00000295  00000+0  36606-4 0  99942 52552  53.2136 147.9912 0001171  73.7030 286.4091 15.08834390222922

JSON: /api/v1/satellites/52552 · /tle

For live sub-satellite position, see the globe view (requires WebGL).

§ Visibility from observer

Set your observer location to see the next 7 days of passes ≥ 10°. The values pass through the URL so the page stays shareable.

No JS? Fill the form by hand. The geolocation button needs JavaScript.